Pecs, Hungary

2:43 PM CET on December 16, 2017 (GMT +0100)
Pecs

Weather History for LHPP - September, 2012

Change the Weather History Date:

Tuesday, September 11, 2012

  Actual Average Record
Temperature  
Mean Temperature 70 °F -  
Max Temperature 83 °F 68 °F - ()
Min Temperature 57 °F 50 °F - ()
Cooling Degree Days 5    
Growing Degree Days 20 (Base 50)    
Moisture  
Dew Point 48 °F    
Average Humidity 43    
Maximum Humidity 63    
Minimum Humidity 24    
Precipitation  
Precipitation 0.00 in 0.06 in - ()
Sea Level Pressure  
Sea Level Pressure 30.04 in    
Wind  
Wind Speed 5 mph ()    
Max Wind Speed 9 mph    
Max Gust Speed -    
Visibility 19.0 miles    
Events      
T = Trace of Precipitation, MM = Missing Value Source: Averaged Metar Reports

Daily Weather History Graph

Daily Weather History Graph

Search for Another Location

Airport or City:

Trip Planner

Search our weather history database for the weather conditions in past years. The results will help you decide how hot, cold, wet, or windy it might be!

Date:

Astronomy

Sep. 11, 2012 Rise Set
Actual Time 6:20 AM CEST 7:05 PM CEST
Civil Twilight 5:50 AM CEST 7:35 PM CEST
Nautical Twilight 5:14 AM CEST 8:11 PM CEST
Astronomical Twilight 4:36 AM CEST 8:49 PM CEST
Moon 1:07 AM CEST (9/11) 4:15 PM CEST (9/11)
Length of Visible Light 13h 45m
Length of Day
12h 45m
Waning Crescent, 24% of the Moon is Illuminated
Sep 11
Waning Crescent
Sep 16
New
Sep 22
First Quarter
Sep 30
Full
Oct 8
Last Quarter

Hourly Weather History & Observations

Time (CEST) Temp. Dew Point Humidity Pressure Visibility Wind Dir Wind Speed Gust Speed Precip Events Conditions
12:45 AM 66.2 °F 42.8 °F 43% 30.09 in - ENE 2.3 mph - N/A   Clear
1:45 AM 64.4 °F 44.6 °F 49% 30.09 in - ENE 8.1 mph - N/A   Clear
2:00 AM 64 °F 45 °F 38% 30.07 in 19 mi ENE 6.7 mph - -   Partly Cloudy
2:45 AM 64.4 °F 44.6 °F 49% 30.06 in - East 8.1 mph - N/A   Clear
3:45 AM 60.8 °F 44.6 °F 55% 30.09 in - ENE 5.8 mph - N/A   Clear
4:45 AM 60.8 °F 44.6 °F 55% 30.06 in - NE 4.6 mph - N/A   Clear
5:45 AM 59.0 °F 44.6 °F 59% 30.06 in - ENE 5.8 mph - N/A   Clear
6:15 AM 59.0 °F 46.4 °F 63% 30.06 in - ENE 6.9 mph - N/A   Clear
6:45 AM 59.0 °F 46.4 °F 63% 30.09 in - ESE 2.3 mph - N/A   Clear
7:00 AM - - N/A% - - ESE 8.1 mph - N/A   Clear
7:15 AM 59.0 °F 46.4 °F 63% 30.09 in - East 4.6 mph - N/A   Clear
7:45 AM 60.8 °F 48.2 °F 63% 30.09 in - ENE 4.6 mph - N/A   Clear
8:00 AM 60 °F 49 °F 56% 30.09 in 25 mi ENE 4.5 mph - -   Partly Cloudy
8:15 AM 64.4 °F 48.2 °F 56% 30.09 in - East 4.6 mph - N/A   Clear
8:45 AM 68.0 °F 50.0 °F 52% 30.09 in - East 4.6 mph - N/A   Clear
9:15 AM 69.8 °F 48.2 °F 46% 30.09 in - ESE 4.6 mph - N/A   Clear
9:45 AM 71.6 °F 50.0 °F 46% 30.09 in - ESE 5.8 mph - N/A   Clear
10:00 AM - - N/A% - - ESE 8.1 mph - N/A   Clear
10:15 AM 71.6 °F 48.2 °F 43% 30.09 in - ESE 5.8 mph - N/A   Clear
10:45 AM 71.6 °F 48.2 °F 43% 30.09 in - SE 5.8 mph - N/A   Clear
11:15 AM 73.4 °F 48.2 °F 41% 30.06 in - ESE 6.9 mph - N/A   Clear
11:45 AM 75.2 °F 48.2 °F 38% 30.06 in - SE 5.8 mph - N/A   Clear
12:15 PM 77.0 °F 48.2 °F 36% 30.06 in - SE 6.9 mph - N/A   Clear
12:45 PM 77.0 °F 50.0 °F 39% 30.06 in - East 8.1 mph - N/A   Clear
1:00 PM - - N/A% - - ESE 8.1 mph - N/A   Clear
1:15 PM 78.8 °F 50.0 °F 36% 30.06 in - SE 8.1 mph - N/A   Clear
1:45 PM 78.8 °F 50.0 °F 36% 30.04 in - ESE 5.8 mph - N/A   Clear
2:00 PM 79 °F 49 °F 24% 30.02 in 25 mi ESE 6.7 mph - -   Partly Cloudy
2:15 PM 78.8 °F 50.0 °F 36% 30.04 in - East 8.1 mph - N/A   Clear
2:45 PM 80.6 °F 50.0 °F 34% 30.04 in - SE 5.8 mph - N/A   Clear
3:15 PM 82.4 °F 50.0 °F 32% 30.01 in - ESE 5.8 mph - N/A   Clear
3:45 PM 82.4 °F 48.2 °F 30% 30.01 in - ESE 8.1 mph - N/A   Clear
4:00 PM - - N/A% - - ESE 5.8 mph - N/A   Clear
4:15 PM 82.4 °F 48.2 °F 30% 30.01 in - SE 4.6 mph - N/A   Clear
4:45 PM 82.4 °F 48.2 °F 30% 29.98 in - SE 3.5 mph - N/A   Clear
5:15 PM 80.6 °F 48.2 °F 32% 29.98 in - SE 4.6 mph - N/A   Clear
5:45 PM 82.4 °F 48.2 °F 30% 29.98 in - SE 5.8 mph - N/A   Clear
6:15 PM 80.6 °F 46.4 °F 30% 29.98 in - SE 6.9 mph - N/A   Clear
6:45 PM 77.0 °F 48.2 °F 36% 29.98 in - SE 4.6 mph - N/A   Clear
7:15 PM 73.4 °F 46.4 °F 38% 29.98 in - SE 5.8 mph - N/A   Clear
7:45 PM 73.4 °F 46.4 °F 38% 29.98 in - ESE 5.8 mph - N/A   Clear
8:00 PM 72 °F 46 °F 29% 29.95 in 19 mi ESE 6.7 mph - -   Partly Cloudy
8:15 PM 71.6 °F 46.4 °F 41% 29.98 in - ESE 5.8 mph - N/A   Clear
8:45 PM 69.8 °F 46.4 °F 43% 29.98 in - ESE 6.9 mph - N/A   Clear
9:15 PM 69.8 °F 48.2 °F 46% 29.98 in - ESE 6.9 mph - N/A   Clear
9:45 PM 68.0 °F 48.2 °F 49% 29.98 in - ESE 6.9 mph - N/A   Clear
10:45 PM 66.2 °F 48.2 °F 52% 29.98 in - SE 5.8 mph - N/A   Clear
11:45 PM 68.0 °F 48.2 °F 49% 29.98 in - SSE 9.2 mph - N/A   Clear